EW4670 Weather Reports


time (UTC)temp
C
wind
direction
speed
KPH
gust
KPH
rain 1hr
cm
rain 24hr
cm
rain mn
cm
humidity
%
barometer
mb
20260905235026 21 287 4.8 12.9 0.00 0.00 0.00 57 1022.0
20260905234034 21 299 3.2 8.0 0.00 0.00 0.00 57 1021.8
20260905233033 21 277 3.2 11.3 0.00 0.00 0.00 56 1021.9
20260905232027 21 292 4.8 8.0 0.00 0.00 0.00 56 1021.9
20260905231043 21 265 4.8 16.1 0.00 0.00 0.00 55 1021.9
20260905230038 21 283 4.8 8.0 0.00 0.00 0.00 56 1021.8
20260905225023 21 308 3.2 8.0 0.00 0.00 0.00 55 1021.7
20260905224024 21 281 6.4 11.3 0.00 0.00 0.00 55 1021.8
20260905223051 20 267 4.8 12.9 0.00 0.00 0.00 56 1021.9
20260905222022 20 22 1.6 6.4 0.00 0.00 0.00 55 1021.7
20260905221050 20 41 1.6 4.8 0.00 0.00 0.00 56 1021.8
20260905220022 20 345 0.0 1.6 0.00 0.00 0.00 56 1021.7
20260905215110 20 338 0.0 1.6 0.00 0.00 0.00 56 1021.7
20260905214019 20 263 1.6 6.4 0.00 0.00 0.00 56 1021.6
20260905213039 19 263 0.0 4.8 0.00 0.00 0.00 57 1021.5
20260905212120 20 270 0.0 1.6 0.00 0.00 0.00 57 1021.5
20260905211038 20 261 1.6 6.4 0.00 0.00 0.00 56 1021.4
20260905210048 21 293 0.0 1.6 0.00 0.00 0.00 54 1021.3
20260905205147 21 315 0.0 1.6 0.00 0.00 0.00 54 1021.5
20260905204048 21 301 1.6 4.8 0.00 0.00 0.00 53 1021.3
20260905203127 21 281 1.6 6.4 0.00 0.00 0.00 53 1021.3
20260905202046 21 302 4.8 8.0 0.00 0.00 0.00 53 1021.3
20260905201046 21 294 4.8 11.3 0.00 0.00 0.00 54 1021.1
20260905200046 21 341 3.2 8.0 0.00 0.00 0.00 55 1021.0
20260905195015 21 12 1.6 4.8 0.00 0.00 0.00 56 1020.7
20260905194045 21 326 1.6 6.4 0.00 0.00 0.00 56 1020.6
20260905193045 21 248 0.0 6.4 0.00 0.00 0.00 55 1020.5
20260905192045 21 278 3.2 6.4 0.00 0.00 0.00 56 1020.4
20260905191044 21 305 1.6 6.4 0.00 0.00 0.00 55 1020.4
20260905190043 21 301 1.6 6.4 0.00 0.00 0.00 55 1020.3
20260905185043 21 291 3.2 6.4 0.00 0.00 0.00 54 1020.2
20260905184042 21 290 0.0 4.8 0.00 0.00 0.00 53 1020.2
20260905183112 21 300 1.6 4.8 0.00 0.00 0.00 54 1020.0
20260905182042 21 309 1.6 6.4 0.00 0.00 0.00 54 1019.9
20260905181041 21 0.0 0.0 0.00 0.00 0.00 52 1019.8
20260905180051 22 0.0 0.0 0.00 0.00 0.00 51 1019.7
20260905175040 22 0 0.0 1.6 0.00 0.00 0.00 51 1019.5
20260905174040 22 342 0.0 4.8 0.00 0.00 0.00 50 1019.4
20260905173039 22 345 3.2 6.4 0.00 0.00 0.00 49 1019.2
20260905172039 23 349 1.6 8.0 0.00 0.00 0.00 49 1019.2
20260905171039 23 294 1.6 8.0 0.00 0.00 0.00 48 1019.2
20260905170039 23 289 3.2 6.4 0.00 0.00 0.00 47 1019.1
20260905165038 23 329 3.2 8.0 0.00 0.00 0.00 46 1019.0
20260905164129 23 301 3.2 11.3 0.00 0.00 0.00 46 1019.0
20260905163038 23 298 8.0 16.1 0.00 0.00 0.00 46 1019.0
20260905162037 24 299 6.4 12.9 0.00 0.00 0.00 45 1019.0
20260905161037 24 299 6.4 12.9 0.00 0.00 0.00 45 1019.1
20260905160037 23 304 4.8 11.3 0.00 0.00 0.00 45 1019.0
20260905155036 23 310 6.4 16.1 0.00 0.00 0.00 44 1019.0
20260905154036 24 269 4.8 11.3 0.00 0.00 0.00 43 1018.9
20260905153035 24 304 8.0 17.7 0.00 0.00 0.00 43 1018.9
20260905152056 24 315 4.8 12.9 0.00 0.00 0.00 42 1019.0
20260905151034 24 304 6.4 16.1 0.00 0.00 0.00 41 1019.0
20260905150034 23 289 9.7 22.5 0.00 0.00 0.00 42 1018.9
20260905145033 23 276 6.4 16.1 0.00 0.00 0.00 42 1018.8
20260905144033 24 293 8.0 19.3 0.00 0.00 0.00 41 1018.9
20260905143033 24 319 8.0 16.1 0.00 0.00 0.00 41 1018.8
20260905142032 24 338 11.3 17.7 0.00 0.00 0.00 41 1018.8
20260905141031 25 343 11.3 25.7 0.00 0.00 0.00 39 1018.8
20260905140031 25 310 8.0 17.7 0.00 0.00 0.00 39 1018.8
20260905135030 25 318 9.7 22.5 0.00 0.00 0.00 38 1018.6
20260905134050 25 2 8.0 19.3 0.00 0.00 0.00 37 1018.6
20260905133059 25 332 9.7 19.3 0.00 0.00 0.00 38 1018.6
20260905132050 25 325 6.4 16.1 0.00 0.00 0.00 39 1018.6
20260905131029 25 317 6.4 16.1 0.00 0.00 0.00 40 1018.5
20260905130028 25 357 9.7 25.7 0.00 0.00 0.00 39 1018.5
20260905125027 24 311 6.4 16.1 0.00 0.00 0.00 41 1018.7
20260905124028 24 314 8.0 22.5 0.00 0.00 0.00 40 1018.7
20260905123028 24 323 9.7 24.1 0.00 0.00 0.00 43 1018.9
20260905122057 24 3 6.4 17.7 0.00 0.00 0.00 44 1019.0
20260905121027 23 328 9.7 24.1 0.00 0.00 0.00 44 1019.0
20260905120028 22 335 8.0 17.7 0.00 0.00 0.00 50 1018.9
20260905115026 21 309 8.0 19.3 0.00 0.00 0.00 55 1018.9
20260905114025 20 284 3.2 11.3 0.00 0.00 0.00 61 1019.1
20260905113044 20 240 3.2 6.4 0.00 0.00 0.00 64 1019.4
20260905112054 19 315 3.2 12.9 0.00 0.00 0.00 62 1019.1
20260905111024 21 332 9.7 17.7 0.00 0.00 0.00 54 1019.2
20260905110024 22 293 8.0 19.3 0.00 0.00 0.00 46 1019.0
20260905105043 23 317 8.0 12.9 0.00 0.00 0.00 43 1018.8
20260905104023 23 347 6.4 19.3 0.00 0.00 0.00 41 1018.5
20260905103052 23 325 9.7 17.7 0.00 0.00 0.00 41 1018.5
20260905102052 23 327 6.4 22.5 0.00 0.00 0.00 41 1018.8
20260905101021 24 343 8.0 22.5 0.00 0.00 0.00 40 1018.8
20260905100021 24 333 6.4 17.7 0.00 0.00 0.00 41 1018.8
20260905095021 24 333 8.0 24.1 0.00 0.00 0.00 42 1019.0
20260905094021 24 321 8.0 19.3 0.00 0.00 0.00 43 1018.9
20260905093050 23 326 6.4 16.1 0.00 0.00 0.00 44 1019.0
20260905092041 24 350 11.3 22.5 0.00 0.00 0.00 43 1019.1
20260905091049 25 308 9.7 29.0 0.00 0.00 0.00 43 1019.2
20260905090020 25 342 14.5 24.1 0.00 0.00 0.00 43 1019.0
20260905085018 25 354 6.4 22.5 0.00 0.00 0.00 46 1018.9
20260905084049 23 17 9.7 22.5 0.00 0.00 0.00 50 1018.8
20260905083048 23 15 6.4 22.5 0.00 0.00 0.00 54 1018.7
20260905082048 24 358 12.9 29.0 0.00 0.00 0.00 50 1018.6
20260905081107 24 352 8.0 19.3 0.00 0.00 0.00 51 1018.2
20260905080047 23 346 9.7 17.7 0.00 0.00 0.00 53 1017.9
20260905075016 23 308 8.0 19.3 0.00 0.00 0.00 54 1017.4
20260905074047 23 321 9.7 19.3 0.00 0.00 0.00 54 1017.2
20260905073045 23 336 12.9 29.0 0.00 0.00 0.00 53 1016.6
20260905072106 24 317 14.5 30.6 0.00 0.00 0.00 53 1016.5
20260905071045 25 337 14.5 33.8 0.00 0.00 0.00 51 1015.9
20260905070045 26 330 11.3 29.0 0.00 0.00 0.00 49 1015.5
20260905065044 26 324 11.3 25.7 0.00 0.00 0.00 49 1015.2
20260905064044 26 315 8.0 17.7 0.00 0.00 0.00 48 1015.1
20260905063043 25 288 3.2 19.3 0.00 0.00 0.00 52 1014.9
20260905062103 23 209 1.6 6.4 0.00 0.00 0.00 57 1014.8
20260905061043 23 235 1.6 4.8 0.00 0.00 0.00 58 1014.7
20260905060113 23 248 0.0 1.6 0.00 0.00 0.00 57 1014.6
20260905055042 22 222 0.0 4.8 0.00 0.00 0.00 59 1014.5
20260905054042 21 234 1.6 4.8 0.00 0.00 0.00 61 1014.5
20260905053041 21 207 1.6 6.4 0.00 0.00 0.00 61 1014.3
20260905052041 21 191 0.0 1.6 0.00 0.00 0.00 62 1014.2
20260905051040 21 125 1.6 4.8 0.00 0.00 0.00 63 1014.0
20260905050110 20 0.0 0.0 0.00 0.00 0.00 63 1014.2
20260905045039 20 208 0.0 1.6 0.00 0.00 0.00 64 1013.8
20260905044040 20 128 1.6 4.8 0.00 0.00 0.00 63 1013.9
20260905043038 20 181 0.0 1.6 0.00 0.00 0.00 62 1013.8
20260905042038 20 0.0 0.0 0.00 0.00 0.00 61 1013.7
20260905041038 21 0.0 0.0 0.00 0.00 0.00 60 1013.6
20260905040107 21 0.0 0.0 0.00 0.00 0.00 60 1013.5
20260905035037 21 85 3.2 6.4 0.00 0.00 0.00 59 1013.5
20260905034040 21 71 1.6 6.4 0.00 0.00 0.00 58 1013.2
20260905033042 22 137 0.0 4.8 0.00 0.00 0.00 57 1013.2
20260905032037 22 127 1.6 4.8 0.00 0.00 0.00 58 1013.3
20260905031037 22 122 1.6 4.8 0.00 0.00 0.00 57 1013.3
20260905030035 22 133 3.2 6.4 0.00 0.00 0.00 57 1013.2
20260905025035 21 103 1.6 4.8 0.00 0.00 0.00 57 1013.3
20260905024055 21 86 1.6 4.8 0.00 0.00 0.00 57 1013.3
20260905023034 22 177 0.0 4.8 0.00 0.00 0.00 57 1013.4
20260905022034 21 67 1.6 6.4 0.00 0.00 0.00 57 1013.4
20260905021054 22 70 3.2 8.0 0.00 0.00 0.00 56 1013.4
20260905020053 22 190 1.6 4.8 0.00 0.00 0.00 56 1013.4
20260905015112 22 235 1.6 6.4 0.00 0.00 0.00 55 1013.5
20260905014052 22 191 1.6 6.4 0.00 0.00 0.00 55 1013.3
20260905013051 22 80 1.6 6.4 0.00 0.00 0.00 55 1013.4
20260905012031 22 359 1.6 1.6 0.00 0.00 0.00 54 1013.2
20260905011031 22 209 1.6 8.0 0.00 0.00 0.00 53 1013.3
20260905010031 22 199 6.4 16.1 0.00 0.00 0.00 52 1013.2
20260905005030 22 202 6.4 12.9 0.00 0.00 0.00 52 1013.1
20260905004029 22 218 9.7 16.1 0.00 0.00 0.00 52 1013.0
20260905003049 22 220 6.4 11.3 0.00 0.00 0.00 52 1013.1
20260905002029 22 213 8.0 11.3 0.00 0.00 0.00 51 1013.2
20260905001048 22 215 8.0 12.9 0.00 0.00 0.00 51 1013.3
20260905000028 23 218 9.7 16.1 0.00 0.00 0.00 51 1013.4